| time (UTC) | temp F | wind direction | speed MPH | gust MPH | rain 1hr in | rain 24hr in | rain mn in | humidity % | barometer mb |
| 20260505200003 | 52 | 46 | 16.0 | 27.0 | 0.00 | 0.00 | 0.00 | 74 | 1008.7 |
| 20260505194602 | 51 | 36 | 17.0 | 25.0 | 0.00 | 0.00 | 0.00 | 77 | 1008.5 |
| 20260505193002 | 51 | 49 | 14.0 | 24.0 | 0.00 | 0.00 | 0.00 | 77 | 1008.9 |
| 20260505191609 | 51 | 52 | 12.0 | 25.0 | 0.00 | 0.00 | 0.00 | 75 | 1008.7 |
| 20260505190059 | 52 | 42 | 12.0 | 23.0 | 0.00 | 0.00 | 0.00 | 73 | 1008.7 |
| 20260505184604 | 52 | 49 | 18.0 | 25.0 | 0.00 | 0.00 | 0.00 | 71 | 1008.7 |
| 20260505183003 | 52 | 48 | 12.0 | 23.0 | 0.00 | 0.00 | 0.00 | 71 | 1008.1 |
| 20260505181602 | 51 | 55 | 18.0 | 27.0 | 0.00 | 0.00 | 0.00 | 72 | 1008.1 |
| 20260505174503 | 51 | 74 | 19.0 | 26.0 | 0.00 | 0.00 | 0.00 | 77 | 1007.7 |
| 20260505173107 | 50 | 65 | 17.0 | 33.0 | 0.00 | 0.00 | 0.00 | 79 | 1007.6 |
| 20260505170004 | 52 | 42 | 14.0 | 22.0 | 0.00 | 0.00 | 0.00 | 75 | 1007.2 |
| 20260505164603 | 52 | 55 | 14.0 | 27.0 | 0.00 | 0.00 | 0.00 | 75 | 1007.2 |
| 20260505163009 | 52 | 50 | 16.0 | 29.0 | 0.00 | 0.00 | 0.00 | 77 | 1006.5 |
| 20260505161626 | 52 | 72 | 15.0 | 27.0 | 0.00 | 0.00 | 0.00 | 78 | 1006.2 |
| 20260505153105 | 53 | 31 | 13.0 | 27.0 | 0.00 | 0.00 | 0.00 | 79 | 1005.3 |
| 20260505151502 | 53 | 44 | 14.0 | 24.0 | 0.00 | 0.00 | 0.00 | 79 | 1004.7 |
| 20260505124603 | 57 | 36 | 13.0 | 22.0 | 0.00 | 0.00 | 0.00 | 81 | 1002.3 |
| 20260505123003 | 58 | 37 | 10.0 | 22.0 | 0.00 | 0.00 | 0.00 | 81 | 1001.6 |
| 20260505121602 | 60 | 43 | 13.0 | 21.0 | 0.00 | 0.00 | 0.00 | 82 | 1000.7 |
| 20260505120124 | 61 | 57 | 13.0 | 21.0 | 0.00 | 0.00 | 0.00 | 80 | 1000.1 |
| 20260505114503 | 64 | 70 | 14.0 | 21.0 | 0.00 | 0.00 | 0.00 | 78 | 1000.1 |
| 20260505113102 | 65 | 38 | 11.0 | 20.0 | 0.00 | 0.00 | 0.00 | 75 | 999.7 |
| 20260505111503 | 66 | 69 | 10.0 | 18.0 | 0.00 | 0.00 | 0.00 | 76 | 999.6 |
| 20260505101604 | 65 | 63 | 11.0 | 18.0 | 0.00 | 0.00 | 0.00 | 80 | 999.3 |
| 20260505100104 | 65 | 61 | 9.0 | 15.0 | 0.00 | 0.00 | 0.00 | 81 | 998.8 |
| 20260505094502 | 65 | 62 | 9.0 | 18.0 | 0.00 | 0.00 | 0.00 | 82 | 998.7 |
| 20260505093103 | 65 | 66 | 7.0 | 14.0 | 0.00 | 0.00 | 0.00 | 83 | 998.3 |
| 20260505091508 | 65 | 86 | 8.0 | 12.0 | 0.00 | 0.00 | 0.00 | 84 | 998.4 |
| 20260505090010 | 65 | 65 | 7.0 | 12.0 | 0.00 | 0.00 | 0.00 | 85 | 997.9 |
| 20260505084603 | 65 | 86 | 8.0 | 12.0 | 0.00 | 0.00 | 0.00 | 85 | 997.5 |
| 20260505081607 | 65 | 97 | 9.0 | 14.0 | 0.00 | 0.00 | 0.00 | 86 | 997.4 |
| 20260505080104 | 64 | 106 | 7.0 | 11.0 | 0.00 | 0.00 | 0.00 | 86 | 997.5 |
| 20260505074503 | 64 | 98 | 5.0 | 9.0 | 0.00 | 0.00 | 0.00 | 86 | 997.7 |
| 20260505073112 | 64 | 106 | 7.0 | 10.0 | 0.00 | 0.00 | 0.00 | 85 | 997.7 |
| 20260505071506 | 64 | 101 | 6.0 | 9.0 | 0.00 | 0.00 | 0.00 | 85 | 997.8 |
| 20260505070004 | 65 | 105 | 6.0 | 9.0 | 0.00 | 0.00 | 0.00 | 84 | 997.9 |
| 20260505064604 | 65 | 117 | 7.0 | 12.0 | 0.00 | 0.00 | 0.00 | 83 | 998.2 |
| 20260505063003 | 66 | 86 | 7.0 | 11.0 | 0.00 | 0.00 | 0.00 | 82 | 998.4 |
| 20260505061612 | 67 | 91 | 7.0 | 11.0 | 0.00 | 0.00 | 0.00 | 81 | 998.4 |
| 20260505060104 | 67 | 107 | 8.0 | 12.0 | 0.00 | 0.00 | 0.00 | 81 | 998.3 |
| 20260505054628 | 68 | 90 | 8.0 | 13.0 | 0.00 | 0.00 | 0.00 | 79 | 998.5 |
| 20260505053002 | 69 | 91 | 3.0 | 10.0 | 0.00 | 0.00 | 0.00 | 78 | 998.5 |
| 20260505051603 | 69 | 88 | 5.0 | 10.0 | 0.00 | 0.00 | 0.00 | 79 | 998.4 |
| 20260505041603 | 70 | 138 | 3.0 | 9.0 | 0.00 | 0.00 | 0.00 | 77 | 998.2 |
| 20260505034506 | 68 | 113 | 0.0 | 7.0 | 0.00 | 0.00 | 0.00 | 79 | 998.3 |
| 20260505033102 | 68 | 113 | 2.0 | 6.0 | 0.00 | 0.00 | 0.00 | 78 | 998.5 |
| 20260505031509 | 69 | 113 | 5.0 | 8.0 | 0.00 | 0.00 | 0.00 | 77 | 998.6 |
| 20260505030003 | 69 | 113 | 5.0 | 8.0 | 0.00 | 0.00 | 0.00 | 76 | 998.5 |
| 20260505024603 | 70 | 112 | 5.0 | 9.0 | 0.00 | 0.00 | 0.00 | 76 | 998.4 |
| 20260505023004 | 70 | 112 | 4.0 | 9.0 | 0.00 | 0.00 | 0.00 | 74 | 998.6 |
| 20260505021503 | 71 | 111 | 5.0 | 9.0 | 0.00 | 0.00 | 0.00 | 72 | 998.5 |
| 20260505020008 | 72 | 110 | 5.0 | 9.0 | 0.00 | 0.00 | 0.00 | 71 | 998.7 |
| 20260505014610 | 72 | 113 | 5.0 | 9.0 | 0.00 | 0.00 | 0.00 | 68 | 998.7 |
| 20260505013002 | 73 | 116 | 4.0 | 8.0 | 0.00 | 0.00 | 0.00 | 66 | 998.5 |
| 20260505011604 | 74 | 117 | 5.0 | 9.0 | 0.00 | 0.00 | 0.00 | 65 | 998.3 |
| 20260505010103 | 75 | 109 | 4.0 | 11.0 | 0.00 | 0.00 | 0.00 | 62 | 998.4 |
| 20260505004502 | 76 | 145 | 6.0 | 14.0 | 0.00 | 0.00 | 0.00 | 60 | 998.5 |
| 20260505003103 | 77 | 149 | 8.0 | 16.0 | 0.00 | 0.00 | 0.00 | 59 | 998.5 |
| 20260505000118 | 78 | 145 | 9.0 | 14.0 | 0.00 | 0.00 | 0.00 | 56 | 998.6 |
| 20260504234503 | 79 | 113 | 7.0 | 16.0 | 0.00 | 0.00 | 0.00 | 54 | 998.7 |
| 20260504233115 | 80 | 140 | 9.0 | 17.0 | 0.00 | 0.00 | 0.00 | 52 | 999.0 |
| 20260504231502 | 81 | 158 | 6.0 | 17.0 | 0.00 | 0.00 | 0.00 | 50 | 999.0 |
| 20260504230002 | 81 | 143 | 9.0 | 14.0 | 0.00 | 0.00 | 0.00 | 48 | 999.2 |
| 20260504224603 | 80 | 148 | 10.0 | 14.0 | 0.00 | 0.00 | 0.00 | 49 | 999.2 |
| 20260504223003 | 81 | 169 | 9.0 | 13.0 | 0.00 | 0.00 | 0.00 | 49 | 999.4 |
| 20260504221612 | 81 | 163 | 9.0 | 13.0 | 0.00 | 0.00 | 0.00 | 48 | 999.3 |
| 20260504220002 | 81 | 146 | 7.0 | 17.0 | 0.00 | 0.00 | 0.00 | 47 | 999.5 |
| 20260504214602 | 81 | 224 | 10.0 | 18.0 | 0.00 | 0.00 | 0.00 | 47 | 999.6 |
| 20260504213010 | 81 | 215 | 9.0 | 16.0 | 0.00 | 0.00 | 0.00 | 47 | 999.7 |
| 20260504211503 | 81 | 206 | 10.0 | 20.0 | 0.00 | 0.00 | 0.00 | 45 | 1000.0 |
| 20260504204504 | 81 | 172 | 8.0 | 13.0 | 0.00 | 0.00 | 0.00 | 46 | 1000.5 |
| 20260504203006 | 81 | 188 | 10.0 | 19.0 | 0.00 | 0.00 | 0.00 | 45 | 1000.6 |
| 20260504201602 | 81 | 209 | 14.0 | 20.0 | 0.00 | 0.00 | 0.00 | 45 | 1000.8 |